CAPE
15 8 31 20 0 7 1 0 0 0 0 0 0 0 0 0 0 0 0 0 0 0 0 0 0 0 0 0 0 0 0 0 0 0 0 0 0 0 0 0 0 0 0 0 0
1 2 4 26 9 0 1 5 0 0 0 4 0 0 0 0 0 0 0 0 0 0 0 0 0 0 0 0 0 0 0 0 0 0 0 0 0 0 0 0 0 0 0 0 0
0 0 1 4 15 11 0 0 16 1 0 0 0 0 0 0 0 0 0 0 0 0 0 0 0 0 0 0 0 0 0 0 0 0 0 0 0 0 0 0 0 0 0 0 0
4 0 1 0 6 7 19 5 3 7 0 0 0 0 0 0 0 0 0 0 0 0 0 0 0 0 0 0 0 0 0 0 0 0 0 0 0 0 0 0 0 0 0 0 0
1 0 0 0 0 2 9 15 15 14 2 0 0 0 14 0 0 0 0 0 0 0 0 0 0 0 0 0 0 0 0 0 0 0 0 0 0 0 0 0 0 0 0 0 0
0 7 0 1 0 4 8 4 15 11 11 4 0 1 6 0 0 6 0 0 0 0 0 0 0 0 0 0 0 0 0 0 0 0 0 0 0 0 0 0 0 0 0 0 0
0 1 13 0 2 5 8 6 13 11 9 4 0 0 0 0 0 0 0 0 0 0 0 0 0 0 0 0 0 0 0 0 0 0 0 0 0 0 0 0 0 0 0 0 0
3 4 8 10 0 0 3 6 0 25 2 10 0 2 0 0 0 0 0 0 0 0 0 0 0 0 0 0 0 0 0 0 0 0 0 0 0 0 0 0 0 0 0 0 0
0 1 5 17 1 0 8 0 0 24 15 29 0 4 0 0 0 0 0 0 3 3 0 5 0 0 0 0 0 0 0 0 0 0 0 0 0 0 0 0 0 0 0 0 0
6 0 5 17 7 0 4 36 4 41 22 10 3 0 0 0 0 0 0 0 5 47 4 20 0 0 0 0 0 0 0 0 0 0 0 0 0 0 0 0 0 0 0 0 0
3 0 0 10 19 2 10 40 1 12 39 2 0 0 0 0 0 0 0 0 0 21 0 0 0 0 0 0 0 0 0 0 0 0 0 0 0 0 0 0 0 0 0 0 0
0 0 0 8 32 4 3 37 25 9 9 18 14 2 0 0 0 0 5 0 10 0 7 0 0 0 0 0 0 0 0 0 0 0 0 0 0 0 0 0 0 0 0 0 0
3 0 0 7 37 28 0 9 0 4 6 0 14 9 1 0 0 0 0 1 1 0 0 0 0 0 0 0 0 0 0 0 0 0 0 0 0 0 0 0 0 0 0 0 0
20 0 0 0 10 26 3 0 0 19 19 0 7 35 5 6 0 0 9 0 3 0 0 0 0 0 0 0 0 0 0 0 0 0 0 0 0 0 0 0 0 0 0 0 0
36 10 6 0 0 2 0 0 7 34 13 1 6 5 0 0 0 0 13 5 0 0 0 0 0 0 0 0 0 0 0 0 0 0 0 0 0 0 0 0 0 0 0 0 0
49 11 10 10 7 12 1 0 33 41 8 0 10 14 14 12 9 2 0 24 0 8 5 0 0 0 0 0 3 10 6 9 6 14 2 0 0 0 0 0 0 0 0 0 0
56 16 11 0 0 25 0 10 39 17 0 6 4 8 5 6 20 6 3 10 0 6 0 2 0 0 0 0 0 3 14 2 3 5 0 0 0 0 0 0 0 0 0 0 0
41 24 11 0 0 30 8 0 8 0 0 0 2 15 13 28 15 10 8 6 1 0 0 0 0 0 0 0 0 0 0 0 0 0 0 0 0 0 0 0 0 0 0 0 0
70 3 2 0 0 11 1 0 0 0 0 1 3 5 0 8 19 34 6 2 1 0 0 0 0 0 0 0 0 0 6 0 0 0 0 0 0 0 0 0 0 0 0 0 0
3 3 3 0 3 0 0 0 0 0 0 0 9 0 3 8 12 13 10 0 3 0 0 0 0 0 0 0 0 6 0 15 28 3 0 0 0 0 0 0 0 0 0 0 0
0 1 5 1 0 0 0 0 0 0 0 0 10 5 13 9 0 4 1 0 0 0 0 3 0 0 0 0 0 6 8 11 5 0 0 0 0 0 0 0 0 0 0 0 0
1 0 19 0 0 0 0 0 0 0 0 0 0 0 0 17 3 0 0 0 0 0 0 0 0 0 0 0 0 4 0 11 0 0 0 0 0 0 0 0 0 0 0 0 0
0 0 21 0 0 0 0 0 0 0 0 0 0 0 0 0 51 11 0 0 0 0 0 0 1 0 0 1 0 14 17 15 2 2 0 3 0 0 0 0 0 0 0 0 0
0 0 0 0 0 0 0 0 0 0 0 0 0 0 0 0 0 4 0 0 2 2 20 28 2 0 0 0 0 1 5 26 32 34 0 0 0 0 0 0 0 0 0 0 0
0 0 0 0 0 0 0 0 0 0 0 0 0 0 0 0 0 0 0 2 20 19 69 39 2 0 0 0 0 0 0 8 5 0 7 0 0 0 0 0 0 0 0 0 0
0 0 0 1 0 0 0 0 0 0 0 0 0 0 0 0 0 0 6 10 1 0 11 12 5 0 0 0 0 0 0 1 0 0 20 0 0 0 0 0 0 0 0 0 0
0 0 0 0 0 0 0 0 0 0 0 0 0 1 0 0 0 0 0 6 3 7 13 51 16 1 0 0 1 23 0 0 0 0 0 1 0 0 0 0 0 0 0 0 0
CIN
-0 -9 -1 -2 -0 -4 -0 -0 -0 -0 -0 -0 -0 -0 -0 -0 -0 -0 -0 -0 -0 -0 -0 -0 -0 -0 -0 -0 -0 -0 -0 -0 -0 -0 -0 -0 -0 -0 -0 -0 -0 -0 -0 -0 -0
-0 -9 -23 -2 -5 -0 -1 -6 -0 -0 -0 -2 -0 -0 -0 -0 -0 -0 -0 -0 -0 -0 -0 -0 -0 -0 -0 -0 -0 -0 -0 -0 -0 -0 -0 -0 -0 -0 -0 -0 -0 -0 -0 -0 -0
-0 -0 -11 -21 -10 -7 -0 -0 -107 -67 -0 -0 -0 -0 -0 -0 -0 -0 -0 -0 -0 -0 -0 -0 -0 -0 -0 -0 -0 -0 -0 -0 -0 -0 -0 -0 -0 -0 -0 -0 -0 -0 -0 -0 -0
-21 -0 -12 -0 -32 -32 -12 -28 -26 -137 -0 -0 -0 -0 -0 -0 -0 -0 -0 -0 -0 -0 -0 -0 -0 -0 -0 -0 -0 -0 -0 -0 -0 -0 -0 -0 -0 -0 -0 -0 -0 -0 -0 -0 -0
-2 -5 -0 -0 -0 -26 -26 -24 -20 -31 -83 -0 -0 -0 -6 -0 -0 -0 -0 -0 -0 -0 -0 -0 -0 -0 -0 -0 -0 -0 -0 -0 -0 -0 -0 -0 -0 -0 -0 -0 -0 -0 -0 -0 -0
-0 -18 -0 -48 -0 -26 -20 -68 -11 -42 -25 -17 -0 -1 -4 -0 -0 -11 -0 -0 -0 -0 -0 -0 -0 -0 -0 -0 -0 -0 -0 -0 -0 -0 -0 -0 -0 -0 -0 -0 -0 -0 -0 -0 -0
-0 -15 -17 -0 -51 -17 -14 -23 -47 -37 -26 -20 -0 -0 -0 -0 -0 -0 -0 -0 -0 -0 -0 -0 -0 -0 -0 -0 -0 -0 -0 -0 -0 -0 -0 -0 -0 -0 -0 -0 -0 -0 -0 -0 -0
-1 -1 -8 -14 -0 -0 -21 -18 -0 -26 -37 -10 -0 -1 -0 -0 -0 -0 -0 -0 -0 -0 -0 -0 -0 -0 -0 -0 -0 -0 -0 -0 -0 -0 -0 -0 -0 -0 -0 -0 -0 -0 -0 -0 -0
-0 -0 -4 -5 -17 -0 -32 -0 -0 -29 -10 -28 -0 -2 -0 -0 -0 -0 -0 -0 -57 -2 -0 -32 -0 -0 -0 -0 -0 -0 -0 -0 -0 -0 -0 -0 -0 -0 -0 -0 -0 -0 -0 -0 -0
-1 -0 -1 -1 -20 -0 -35 -4 -28 -6 -3 -5 -0 -0 -0 -0 -0 -0 -0 -0 -0 -31 -9 -21 -3 -0 -0 -0 -0 -0 -0 -0 -0 -0 -0 -0 -0 -0 -0 -0 -0 -0 -0 -0 -0
-2 -0 -0 -3 -6 -60 -27 -5 -0 -1 -0 -1 -0 -0 -0 -0 -0 -0 -0 -0 -0 -5 -0 -0 -0 -0 -0 -0 -0 -0 -0 -0 -0 -0 -0 -0 -0 -0 -0 -0 -0 -0 -0 -0 -0
-0 -0 -0 -1 -8 -16 -29 -0 -4 -7 -0 -1 -5 -9 -0 -0 -0 -0 -2 -0 -0 -0 -0 -0 -0 -0 -0 -0 -0 -0 -0 -0 -0 -0 -0 -0 -0 -0 -0 -0 -0 -0 -0 -0 -0
-11 -0 -0 -2 -0 -1 -0 -22 -0 -54 -15 -4 -0 -16 -30 -0 -0 -0 -0 -2 -1 -0 -0 -0 -0 -0 -0 -0 -0 -0 -0 -0 -0 -0 -0 -0 -0 -0 -0 -0 -0 -0 -0 -0 -0
-4 -0 -0 -0 -0 -1 -1 -0 -0 -12 -0 -6 -0 -2 -13 -15 -8 -0 -50 -0 -0 -0 -0 -0 -0 -0 -0 -0 -0 -0 -0 -0 -0 -0 -0 -0 -0 -0 -0 -0 -0 -0 -0 -0 -0
-1 -16 -8 -0 -0 -0 -0 -0 -3 -4 -2 -4 -0 -8 -0 -0 -0 -0 -48 -3 -0 -0 -0 -0 -0 -0 -0 -0 -0 -0 -0 -0 -0 -0 -0 -0 -0 -0 -0 -0 -0 -0 -0 -0 -0
-1 -15 -4 -1 -5 -7 -3 -15 -10 -1 -16 -0 -1 -0 -0 -1 -3 -8 -0 -3 -0 -2 -1 -0 -1 -0 -0 -0 -3 -11 -6 -4 -7 -3 -0 -0 -0 -0 -0 -0 -0 -0 -0 -0 -0
-1 -21 -20 -0 -0 -12 -0 -11 -3 -2 -0 -5 -0 -0 -0 -2 -0 -6 -0 -0 -0 -0 -0 -1 -0 -0 -0 -0 -1 -5 -3 -3 -0 -0 -0 -0 -0 -0 -0 -0 -0 -0 -0 -0 -0
-7 -12 -6 -0 -0 -15 -2 -0 -12 -0 -0 -1 -6 -0 -0 -1 -0 -14 -0 -0 -0 -0 -0 -0 -0 -0 -2 -0 -0 -0 -0 -0 -0 -0 -0 -0 -0 -0 -0 -0 -0 -0 -0 -0 -0
-0 -6 -8 -0 -0 -12 -1 -0 -0 -0 -0 -28 -15 -0 -0 -1 -3 -0 -0 -0 -0 -0 -0 -0 -0 -0 -0 -0 -0 -0 -2 -1 -0 -0 -0 -0 -0 -0 -0 -0 -0 -0 -0 -0 -0
-0 -0 -3 -0 -9 -2 -0 -0 -0 -0 -0 -0 -8 -0 -2 -0 -0 -11 -3 -0 -0 -0 -0 -0 -0 -0 -0 -0 -0 -9 -11 -0 -4 -2 -0 -0 -0 -0 -0 -0 -0 -0 -0 -0 -0
-0 -0 -4 -2 -0 -0 -0 -0 -0 -0 -0 -0 -0 -7 -4 -8 -2 -0 -5 -0 -0 -0 -0 -22 -0 -0 -0 -0 -0 -1 -2 -3 -2 -0 -0 -0 -0 -0 -0 -0 -0 -0 -0 -0 -0
-0 -0 -3 -0 -0 -0 -0 -0 -0 -0 -0 -0 -0 -0 -0 -9 -51 -0 -0 -0 -0 -0 -0 -10 -0 -0 -0 -0 -0 -32 -49 -16 -0 -0 -0 -0 -0 -0 -0 -0 -0 -0 -0 -0 -0
-0 -1 -6 -0 -0 -0 -0 -0 -0 -0 -0 -0 -0 -0 -0 -0 -3 -31 -0 -0 -0 -5 -0 -0 -11 -0 -0 -3 -15 -8 -11 -5 -5 -1 -0 -3 -0 -0 -0 -0 -0 -0 -0 -0 -0
-0 -0 -1 -0 -0 -0 -0 -0 -0 -0 -0 -0 -0 -0 -0 -0 -0 -4 -1 -9 -19 -76 -48 -38 -38 -0 -0 -0 -0 -28 -62 -30 -9 -2 -0 -0 -0 -0 -0 -0 -0 -0 -0 -0 -0
-0 -0 -0 -0 -0 -0 -0 -0 -0 -0 -0 -0 -0 -0 -0 -0 -0 -0 -0 -48 -34 -31 -18 -11 -16 -0 -0 -0 -0 -0 -3 -30 -10 -0 -9 -0 -0 -0 -0 -0 -0 -0 -0 -0 -0
-0 -0 -0 -0 -0 -0 -0 -0 -0 -0 -0 -0 -0 -0 -0 -0 -0 -0 -34 -58 -31 -0 -11 -39 -6 -0 -0 -0 -0 -0 -0 -25 -0 -0 -13 -0 -0 -0 -0 -0 -0 -0 -0 -0 -0
-0 -0 -0 -0 -0 -0 -0 -0 -0 -0 -0 -0 -0 -2 -0 -0 -0 -0 -0 -45 -80 -82 -56 -10 -30 -18 -0 -0 -59 -9 -0 -0 -0 -0 -0 -33 -0 -0 -0 -0 -0 -0 -0 -0 -0
Wind_Speed
29 29 29 29 29 30 27 25 28 31 31 28 29 27 27 28 29 28 30 26 26 27 27 26 22 22 21 19 19 17 19 19 18 11 11 12 14 14 13 11 13 14 11 9 9
28 28 29 28 27 28 29 26 24 27 31 28 29 29 27 27 29 34 29 30 28 26 26 25 25 24 22 21 19 19 18 17 16 14 9 12 14 14 14 12 13 10 9 8 8
29 27 27 28 27 26 26 27 25 25 28 28 29 31 28 27 33 33 28 28 28 27 26 27 26 24 24 23 21 21 18 18 17 15 14 14 14 15 17 17 11 7 5 6 7
30 28 27 27 28 27 25 24 24 26 24 27 26 29 29 30 42 25 23 25 26 26 27 27 25 25 25 25 23 24 22 21 19 19 19 18 18 18 18 16 13 4 5 5 6
31 29 28 28 28 27 27 25 24 23 23 23 25 24 28 37 37 24 21 20 21 24 28 27 27 26 28 26 26 27 26 23 20 20 22 23 22 21 21 15 10 8 8 9 9
34 31 30 28 28 28 28 27 25 20 20 21 22 24 30 41 28 25 26 24 22 23 26 28 26 26 30 30 28 25 24 27 26 24 24 26 28 25 24 21 20 18 16 14 16
32 32 29 28 26 27 27 27 25 25 21 20 19 22 32 37 24 23 25 26 25 24 26 27 29 28 27 30 29 28 31 29 27 25 27 26 34 32 29 28 27 24 18 20 20
28 31 31 28 27 26 27 26 24 24 23 20 19 23 37 27 31 26 24 27 26 26 25 25 23 27 27 28 27 30 31 35 30 29 29 29 42 36 33 31 30 27 23 22 24
27 27 30 30 28 25 25 25 23 24 20 16 21 26 36 25 31 30 26 27 26 25 25 24 24 29 29 32 34 32 38 37 38 33 34 32 41 35 31 32 35 33 26 24 28
27 25 27 30 29 27 24 22 21 19 18 18 22 27 33 31 25 24 22 25 26 25 26 27 27 33 34 35 45 40 40 40 40 33 36 41 43 36 33 34 32 30 27 26 24
28 26 25 26 28 26 25 20 22 26 29 28 26 28 25 23 19 23 20 24 25 29 34 30 37 44 38 37 37 36 39 39 36 36 41 44 44 40 37 35 36 36 32 30 36
27 25 24 24 26 26 26 29 25 23 32 32 26 28 22 16 23 23 18 27 30 36 31 33 46 37 33 35 37 41 45 45 41 38 37 41 48 45 43 43 41 41 39 34 32
25 22 23 22 23 23 30 29 23 21 27 32 34 30 24 22 29 26 21 25 31 34 36 39 34 33 33 34 37 40 43 42 43 40 40 42 53 49 46 49 46 42 39 38 35
20 19 19 20 25 26 33 25 22 22 35 36 34 35 27 21 31 22 20 22 29 36 33 39 40 30 34 39 35 43 33 36 40 41 48 35 57 47 40 40 36 34 31 34 32
19 16 16 17 21 31 26 23 20 20 47 30 31 23 26 31 24 28 17 24 31 29 30 37 33 41 37 37 32 38 30 35 37 40 44 46 46 43 36 41 41 35 30 28 28
18 14 13 16 20 21 20 20 20 35 48 29 23 30 30 36 32 21 24 24 25 30 33 35 25 30 36 29 28 23 26 29 31 33 49 44 43 50 47 45 42 35 32 26 19
15 14 13 12 20 16 16 22 39 49 28 34 33 30 31 33 31 29 28 32 32 34 40 35 39 29 27 35 27 28 29 38 40 41 49 33 40 53 37 33 32 32 24 21 18
14 12 13 15 11 10 20 28 44 41 39 25 29 27 36 29 35 30 29 35 34 31 29 37 43 37 26 29 33 30 30 36 44 46 45 36 47 45 36 36 34 31 23 21 21
14 15 16 14 13 16 24 38 32 32 33 31 27 30 32 32 29 33 40 39 34 32 35 35 40 26 26 26 23 32 39 29 35 35 42 39 42 42 35 32 28 26 22 23 23
15 13 12 5 3 15 30 33 31 22 27 32 37 30 37 35 34 34 33 34 35 32 27 30 36 29 25 25 31 31 26 36 39 47 51 48 47 46 35 34 31 29 26 26 24
12 13 9 6 6 20 27 34 32 29 23 27 39 35 33 35 35 37 36 33 33 31 31 29 31 29 23 32 30 29 33 33 34 39 47 51 46 36 39 39 38 34 30 28 27
10 14 9 9 19 23 27 25 26 26 26 30 25 30 37 35 37 38 41 36 28 29 36 31 30 36 37 30 29 31 32 31 40 43 45 52 56 27 23 27 31 35 31 29 27
10 8 8 10 25 27 24 27 25 30 35 33 35 31 23 24 38 38 39 35 29 28 29 29 35 40 39 38 33 36 36 35 36 36 43 47 58 36 46 47 42 40 33 28 26
3 8 10 17 16 19 24 29 31 27 33 34 37 34 36 33 32 35 39 33 30 30 28 23 36 43 51 42 30 39 38 38 40 47 52 51 60 54 43 41 34 31 30 29 27
10 8 9 16 18 21 22 26 30 31 28 32 41 42 41 39 35 37 34 35 30 30 31 28 40 40 43 39 34 37 39 37 41 46 49 53 51 63 50 48 46 46 44 39 36
11 9 13 15 15 16 20 30 33 28 27 30 43 48 39 45 36 30 27 28 28 25 28 28 39 37 46 42 41 45 38 39 43 45 46 49 56 55 51 50 45 46 42 40 37
12 12 16 16 15 15 20 26 32 31 33 29 33 40 46 45 38 40 27 23 22 24 27 28 34 35 46 42 40 49 49 48 47 46 46 51 52 51 55 51 49 49 44 43 41
Wind_Direction
269 266 267 267 265 263 265 267 264 260 263 267 268 273 276 277 277 275 267 270 274 281 283 280 286 291 284 284 288 290 268 270 274 274 277 276 282 287 305 318 312 308 320 357 49
271 268 265 267 267 266 264 265 268 265 260 264 264 267 274 279 272 265 272 273 275 282 277 279 277 284 279 279 282 275 269 276 278 269 285 282 291 293 298 313 309 335 344 15 36
269 269 268 263 267 267 267 266 268 267 263 262 264 263 269 276 269 266 276 275 273 275 275 276 275 277 272 273 273 270 267 278 277 278 278 286 291 297 291 290 308 338 9 20 23
265 268 268 266 264 266 268 269 267 264 266 262 266 263 267 265 255 268 280 278 276 274 271 271 273 270 269 267 271 266 271 277 275 277 277 284 282 288 287 295 306 356 18 14 4
261 263 265 266 263 263 265 266 268 266 266 266 263 265 261 254 256 268 279 289 283 274 263 264 266 267 265 267 269 265 268 279 277 281 280 278 279 282 282 295 316 318 320 319 321
258 261 261 265 264 263 262 262 263 269 267 267 266 261 259 253 271 265 269 277 283 273 265 261 265 271 267 265 266 273 271 273 274 277 280 277 276 279 280 285 287 292 295 300 302
259 258 259 260 264 263 262 261 261 260 266 267 268 264 258 254 270 271 270 270 274 274 267 263 264 267 270 267 270 269 267 274 274 274 277 280 273 273 277 281 280 284 288 292 295
265 258 256 257 260 263 261 260 261 258 263 265 265 265 256 270 262 270 274 267 270 271 269 271 269 268 267 273 272 264 268 266 272 272 277 278 271 274 274 277 277 280 284 286 287
264 262 256 253 254 260 261 258 261 253 255 264 262 260 259 271 256 258 269 266 264 269 267 270 268 263 264 262 262 264 263 265 271 273 275 272 275 275 277 279 275 277 278 282 285
261 261 260 252 250 253 258 255 258 255 250 263 269 259 259 256 262 261 264 264 260 263 262 261 262 257 257 254 255 262 265 268 270 276 273 270 271 272 275 278 279 280 277 277 282
258 259 260 257 246 249 251 250 249 251 244 248 256 256 267 264 267 261 260 260 259 257 253 256 254 251 254 257 262 267 266 268 273 277 273 271 270 268 272 276 276 274 276 277 272
255 255 258 258 244 244 247 245 247 263 249 247 259 251 275 266 264 262 253 252 252 251 254 255 253 257 260 259 261 263 264 267 273 277 277 275 270 268 269 273 275 273 273 275 277
249 251 254 255 243 241 241 243 259 271 258 252 248 254 257 262 259 258 245 252 254 251 249 251 265 255 258 258 259 262 264 268 270 275 278 278 271 269 271 272 274 273 272 272 274
240 244 251 249 248 243 240 246 258 260 256 254 247 253 250 259 258 261 244 255 258 253 254 256 254 263 255 257 259 262 269 272 272 273 269 278 271 270 272 274 278 277 274 272 274
234 234 242 242 255 238 244 240 252 252 247 258 247 258 239 244 255 252 247 256 256 254 252 257 259 252 258 259 260 266 272 271 271 271 272 269 274 272 273 272 273 276 278 277 276
227 220 230 245 259 247 240 238 245 239 243 253 249 240 237 241 249 256 248 259 263 259 258 257 271 260 254 261 260 268 272 275 277 276 268 268 267 272 268 273 276 280 276 276 277
190 204 228 245 252 241 224 229 233 236 247 250 250 241 236 243 240 245 243 242 248 251 252 258 257 268 265 254 263 260 265 268 268 267 268 275 268 269 275 278 282 282 275 275 275
179 190 235 247 251 235 220 233 236 236 239 257 250 243 239 240 240 241 242 241 245 251 257 253 256 254 260 260 257 257 254 263 267 269 273 269 269 272 279 279 277 285 278 275 278
180 224 234 245 241 238 230 232 243 241 237 243 250 245 244 241 249 239 244 245 245 243 257 258 261 274 262 261 253 259 254 261 275 279 276 273 274 277 278 281 285 282 276 276 277
203 216 232 214 214 243 239 242 241 257 245 242 245 250 244 240 241 243 241 248 248 242 257 264 266 266 259 260 259 263 264 260 262 269 271 273 273 272 280 278 282 279 278 281 282
209 234 225 171 236 249 246 240 248 252 252 250 246 251 253 247 244 246 255 256 241 244 247 265 267 268 260 257 256 259 261 266 270 265 271 274 275 280 277 279 279 281 283 282 282
232 249 201 167 242 251 248 248 251 252 250 251 262 258 261 250 244 248 251 252 250 245 242 254 266 262 261 272 265 256 260 257 267 267 268 271 270 283 289 295 295 293 288 285 284
241 260 223 226 246 250 255 254 260 257 252 251 252 253 273 267 253 249 252 256 254 242 247 243 260 262 267 269 268 263 261 264 266 274 268 272 273 282 284 285 287 287 289 287 285
259 262 249 252 269 259 256 256 256 265 260 252 250 253 256 270 273 259 254 256 252 246 252 247 258 258 260 269 267 264 266 264 264 268 270 270 275 276 281 287 294 294 292 288 284
284 280 272 255 254 265 260 262 258 259 265 257 250 248 249 261 273 264 256 257 256 249 247 251 259 259 263 270 274 272 267 268 266 267 269 275 274 274 281 284 286 287 287 287 284
292 283 274 282 268 255 263 260 257 263 262 266 254 248 246 253 264 274 261 255 254 254 249 253 264 265 266 270 271 271 276 273 269 273 275 276 277 280 285 286 287 287 290 287 285
302 299 282 278 275 268 264 267 265 262 265 268 267 252 244 247 259 267 268 264 269 256 248 251 260 266 267 274 276 272 270 272 274 273 275 275 279 285 284 285 288 287 287 286 286